GFSCGP_850_spd_144.txt.gz
Wind_Speed
13 9 11 12 9 3 1 5 11 5 2 6 4 9 12 16 15 17 17 18 18 17 17 18 18 18 17 15 15 16 17 16 16 14 13 12 12 11 11 12 13 13 14 15
7 13 9 3 4 6 5 7 9 5 2 8 6 5 9 14 15 17 18 17 17 17 17 18 19 19 18 17 17 16 15 16 15 14 14 13 12 11 12 12 14 15 16 16
14 8 9 7 9 10 9 9 10 8 8 3 6 8 9 12 13 13 15 17 17 18 18 17 18 19 18 18 18 17 15 13 10 12 14 15 15 16 14 13 12 13 16 17
11 8 10 10 10 11 9 3 3 8 13 10 8 6 11 10 13 16 18 19 19 19 17 17 17 18 18 18 18 18 18 17 17 16 15 14 14 13 12 13 13 16 17 19
9 13 12 11 10 10 6 5 3 5 9 3 10 9 10 10 12 16 20 21 20 21 20 18 17 17 17 17 17 16 17 17 16 15 13 15 14 11 9 9 9 13 14 16
2 2 7 7 7 4 10 8 6 5 7 9 6 7 9 10 14 13 20 22 21 21 20 18 16 16 16 16 16 15 16 16 17 16 12 10 10 8 7 8 9 10 11 13
13 13 7 10 12 8 12 11 7 8 8 5 5 6 12 4 4 7 10 22 22 22 22 21 20 18 17 17 16 15 15 11 11 11 11 10 10 9 8 8 9 12 14 15
14 16 15 12 13 11 13 9 4 6 5 7 4 6 3 0 7 8 12 17 23 22 22 23 24 21 19 17 16 15 14 11 10 13 12 11 8 7 8 11 12 15 18 18
15 12 11 7 7 8 9 10 5 2 2 6 5 3 8 1 2 3 12 17 18 22 23 23 24 24 20 18 16 16 16 15 14 14 12 11 10 10 11 16 17 14 18 19
8 12 12 7 9 3 8 10 7 6 3 5 7 4 2 1 3 1 7 13 18 20 22 22 21 21 20 18 16 15 16 19 17 15 13 11 11 12 16 17 19 23 24 24
9 10 11 10 12 14 7 10 8 3 5 4 3 6 4 2 6 3 4 10 15 20 22 20 19 16 17 17 16 15 14 14 14 13 11 13 13 13 16 19 23 21 23 28
16 11 10 18 5 4 10 15 14 7 10 2 6 1 6 3 3 6 6 8 13 17 17 17 17 16 15 15 14 14 13 13 13 15 15 15 14 15 20 23 21 21 27 33
18 10 9 8 8 6 12 9 12 5 4 5 7 3 5 3 5 7 9 8 13 14 15 15 15 15 13 12 12 12 12 10 9 13 14 12 12 19 23 23 24 30 34 37
22 15 16 13 15 16 13 12 14 14 9 8 10 9 4 1 3 3 6 9 11 14 15 15 13 11 10 9 9 10 10 6 9 10 11 16 21 22 22 24 28 35 37 39
15 17 15 17 6 9 14 14 15 16 15 9 3 4 2 1 3 6 5 7 11 14 15 15 12 10 10 8 8 10 7 5 8 13 16 20 22 24 25 29 35 39 40 41
11 11 12 14 11 14 14 15 16 16 10 11 6 6 0 2 3 4 4 3 6 9 10 10 10 8 7 6 3 3 5 8 14 17 21 24 24 25 30 34 37 39 41 38
13 10 11 16 10 13 15 16 18 14 12 9 9 2 3 4 5 6 4 2 3 6 9 10 8 6 5 3 2 4 9 14 18 20 22 23 25 25 27 27 31 34 33 30
14 15 9 8 10 14 3 7 14 11 8 7 3 1 2 2 5 6 4 4 8 10 11 10 8 6 3 0 5 10 14 17 19 20 21 23 25 27 27 27 28 28 29 28
14 11 5 6 14 5 5 6 9 12 11 10 7 6 6 7 9 10 9 11 12 12 11 8 6 3 2 6 11 15 16 16 19 24 26 27 27 28 28 27 28 29 27 28
9 9 10 8 14 17 4 13 7 8 8 13 10 8 8 8 7 10 11 11 12 10 8 6 4 4 5 10 16 22 26 29 25 24 26 24 24 24 26 26 27 27 26 29
11 12 14 9 10 6 8 10 12 9 2 9 10 9 10 6 6 15 12 10 9 8 4 6 7 9 14 18 21 22 21 17 18 20 21 23 25 27 27 26 24 26 31 29
11 9 8 7 12 10 12 10 9 4 4 9 12 11 12 12 14 13 10 9 7 6 6 8 9 12 15 16 16 16 16 18 19 21 22 24 26 28 26 27 29 27 24 26
7 3 4 5 3 9 8 5 4 3 6 9 14 16 16 15 12 10 8 6 6 6 8 9 10 10 10 12 14 16 17 19 21 21 23 23 23 24 24 25 26 23 22 25
4 3 4 9 6 8 8 6 6 8 11 13 14 15 13 12 10 8 6 4 4 6 7 9 9 10 12 14 16 16 19 23 25 25 23 22 23 25 24 23 23 25 28 36
2 10 9 7 9 12 9 12 15 17 17 18 16 14 12 10 9 6 4 4 4 6 8 10 13 14 16 20 18 17 20 23 23 24 24 25 22 23 23 20 21 26 30 27
9 7 6 4 15 2 16 15 16 17 16 15 14 13 11 8 6 4 4 4 5 7 10 10 11 13 15 17 15 18 23 22 22 23 20 21 23 22 21 21 27 27 28 20

GFSCGP_850_spd_150.txt.gz
Wind_Speed
17 11 14 17 16 11 13 9 11 13 13 11 22 18 16 25 24 22 21 19 20 21 21 20 21 21 21 20 21 22 21 21 20 18 12 10 9 9 7 11 12 13 11 11
15 15 18 16 10 2 10 9 13 12 8 11 18 19 17 15 23 26 24 22 21 21 22 23 24 23 23 23 23 22 22 23 21 17 15 14 11 11 10 13 14 20 6 13
18 17 16 16 3 7 9 11 11 12 9 10 11 17 19 16 15 25 26 24 21 23 24 26 26 25 24 25 25 24 22 20 19 17 12 13 14 17 13 15 16 18 9 16
17 20 16 8 9 10 13 11 5 9 13 11 13 8 17 18 15 19 25 28 26 25 25 27 27 27 26 26 24 23 21 21 19 17 19 15 9 10 9 10 6 8 11 6
18 17 9 10 13 16 14 8 2 6 9 12 15 8 16 18 17 15 22 28 26 30 27 27 27 28 27 25 25 23 23 21 20 16 15 14 12 7 5 1 7 7 8 7
18 18 11 15 14 14 12 2 5 8 11 12 14 9 16 16 19 18 23 28 26 31 28 28 26 27 27 26 25 25 24 23 22 21 17 18 15 12 8 6 3 4 3 7
18 19 16 14 15 17 9 8 7 8 8 11 16 8 10 9 17 8 19 28 28 30 30 32 31 30 27 29 28 28 26 24 22 21 19 17 16 17 16 11 5 5 4 5
15 14 14 16 20 15 11 15 11 4 6 10 9 5 3 16 13 2 4 19 30 30 31 35 36 36 30 31 30 30 28 26 24 23 22 20 17 18 19 13 7 10 10 11
16 19 20 19 16 12 14 14 19 15 16 8 11 8 10 8 4 9 3 8 18 32 33 33 34 36 31 30 32 31 30 26 24 25 24 23 22 21 15 12 14 14 12 15
17 12 20 21 16 21 17 14 12 7 11 8 7 11 8 12 8 8 0 10 12 21 30 34 33 36 34 32 32 31 28 27 25 24 24 24 24 22 22 20 17 19 20 21
22 18 14 20 17 19 16 12 10 13 9 7 4 7 12 10 9 6 3 3 8 13 24 28 32 38 36 31 35 35 37 33 24 19 21 21 20 17 17 15 19 19 20 23
24 12 14 20 16 15 15 16 14 10 8 9 5 10 14 9 8 5 5 7 7 14 11 9 22 18 40 17 32 37 24 32 21 22 21 20 29 13 10 10 14 17 18 23
20 16 14 17 19 16 17 18 19 14 12 11 9 9 14 10 10 8 5 5 2 11 13 3 19 27 14 25 41 22 13 18 19 10 25 25 7 7 12 16 19 22 25 29
19 19 17 14 16 18 21 21 20 18 12 14 11 14 15 13 13 12 8 3 4 9 10 15 4 14 35 34 6 6 7 7 1 9 5 7 1 5 14 10 19 23 28 30
17 16 19 23 22 17 18 21 20 18 18 15 4 4 12 11 10 9 6 3 3 6 10 8 7 13 13 17 8 12 4 4 4 4 1 9 10 15 18 19 21 26 29 33
16 14 16 22 22 23 20 23 21 23 22 13 14 11 16 19 13 12 8 5 2 4 9 6 8 8 4 9 5 5 5 3 5 6 8 9 7 14 17 21 25 27 28 29
15 14 13 18 22 21 20 15 21 19 14 16 14 13 16 13 12 8 7 7 2 2 6 10 15 12 9 10 12 9 4 4 5 4 8 12 16 22 25 27 28 29 31 31
15 13 12 14 15 23 17 13 16 13 15 16 16 17 16 16 13 8 8 8 10 10 9 9 15 18 15 11 8 6 6 5 6 9 11 17 21 22 22 22 23 26 30 32
20 14 13 12 16 16 24 18 14 14 13 13 21 18 22 20 17 13 11 15 18 19 17 14 13 10 8 7 5 5 3 7 7 9 16 17 18 20 21 23 26 27 30 34
22 18 12 12 17 20 14 15 14 12 10 13 23 16 20 17 6 10 17 19 19 18 16 15 12 9 5 4 5 5 8 8 7 13 13 16 18 19 22 23 25 28 33 34
9 8 18 14 13 15 3 8 14 14 6 19 23 18 19 8 7 26 20 18 17 15 14 12 9 7 5 4 7 6 6 7 13 15 18 18 18 19 18 22 26 29 31 30
11 10 11 11 15 18 13 15 14 9 18 20 21 18 30 30 30 26 22 19 16 14 11 9 7 5 3 1 5 5 8 14 17 19 19 19 20 20 22 24 27 27 28 26
17 14 12 2 3 13 24 27 19 18 19 16 17 27 31 28 25 24 22 18 14 11 9 7 6 4 1 8 9 6 12 17 19 18 18 22 18 20 20 25 24 24 29 23
14 25 12 9 9 14 18 19 19 20 20 17 26 24 24 27 24 21 19 16 12 9 7 5 5 3 4 7 10 12 13 17 19 18 19 17 19 20 21 21 24 24 29 26
13 10 10 6 16 19 18 18 19 19 19 23 21 21 25 27 23 20 16 13 10 7 5 4 3 4 3 9 11 13 17 22 18 18 17 16 18 18 21 21 23 23 23 22
3 10 5 10 22 12 21 21 21 24 24 23 26 28 24 22 20 18 14 11 8 6 4 3 2 4 5 8 7 12 19 18 16 15 14 17 17 17 20 21 24 20 21 19

GFSCGP_850_spd_153.txt.gz
Wind_Speed
12 2 8 14 14 16 8 4 10 9 9 10 19 20 23 31 30 27 29 32 31 30 29 28 26 28 28 25 25 23 23 23 20 20 20 19 15 11 9 12 10 5 8 14
5 9 16 16 17 12 7 8 11 8 8 10 14 17 20 26 30 34 32 32 34 31 32 30 29 30 31 32 30 28 31 29 27 24 20 16 13 11 12 10 12 11 17 22
9 14 20 18 15 1 8 2 4 13 6 6 13 8 16 19 26 33 36 37 36 37 36 34 33 34 34 33 31 28 30 30 30 26 22 18 17 18 15 11 9 12 12 5
11 22 16 14 6 5 6 7 8 14 7 4 7 5 7 11 20 24 34 37 38 39 39 37 35 35 35 34 29 27 26 29 28 26 24 20 18 17 15 8 6 6 6 4
12 11 12 12 5 6 8 5 6 2 1 1 5 5 14 9 9 19 30 37 39 44 43 42 38 37 35 32 32 29 25 25 27 26 25 24 20 14 11 11 5 5 6 9
12 21 9 6 5 9 9 2 5 6 4 5 11 8 8 13 16 16 30 38 41 44 46 41 39 34 36 33 32 31 28 25 26 27 26 25 22 14 13 10 11 8 5 9
10 14 10 7 6 7 6 6 1 3 2 7 11 3 8 18 15 14 22 38 38 45 46 45 42 39 34 37 36 34 32 29 27 27 27 26 24 19 20 18 12 10 8 9
7 8 9 7 7 9 9 7 6 7 4 8 10 7 5 8 24 15 19 31 37 44 46 49 44 40 36 35 38 38 36 33 27 27 28 27 26 26 24 21 19 15 9 7
9 9 8 6 6 7 7 5 7 3 6 3 1 7 5 9 8 11 12 16 28 42 43 50 47 42 37 36 37 41 37 32 31 27 25 26 25 25 24 21 17 13 11 16
7 5 10 9 9 10 9 8 1 3 4 5 3 5 5 7 7 7 7 3 1 35 41 46 50 46 36 35 35 37 36 31 30 26 21 20 20 23 21 15 21 14 17 21
16 5 12 7 10 10 5 2 3 4 5 4 3 5 2 8 7 8 8 4 15 22 12 45 42 23 19 15 12 30 15 20 31 22 7 17 24 22 23 23 22 23 28 25
15 3 7 11 8 14 10 10 8 5 9 2 6 6 8 9 9 12 12 10 14 16 19 18 23 25 30 27 30 20 16 30 25 2 18 39 30 30 15 22 35 24 22 21
10 7 7 10 4 8 13 9 7 5 3 4 3 4 3 12 12 17 20 18 15 12 16 17 20 30 24 28 20 21 36 41 38 21 22 28 35 24 26 31 16 18 20 21
21 8 8 9 7 7 7 8 6 7 3 5 4 8 9 9 10 12 14 14 15 18 22 28 25 28 26 18 26 28 32 24 42 15 13 16 12 21 17 16 17 16 19 24
16 9 8 9 12 9 8 16 12 10 8 7 8 11 6 9 10 15 14 14 17 24 22 25 27 25 18 11 10 1 13 16 20 13 11 8 4 6 6 11 17 21 22 23
8 6 8 5 12 11 13 12 21 17 9 4 16 13 13 23 24 19 13 15 29 29 27 22 25 24 12 14 17 19 19 15 8 8 7 4 3 6 11 16 19 20 21 21
10 7 6 6 8 6 10 9 7 12 10 8 7 8 13 9 13 19 16 21 31 32 31 31 27 24 23 21 16 11 7 5 6 4 3 7 11 14 16 16 17 19 21 22
7 8 5 5 3 8 7 6 8 13 17 7 16 12 14 19 21 17 14 27 31 36 36 33 30 24 19 14 9 6 3 4 6 9 12 14 15 15 16 18 20 21 20 22
9 6 3 6 6 5 9 16 5 4 2 25 21 19 24 32 30 22 23 24 26 26 28 28 22 17 12 10 7 4 3 1 3 7 12 14 17 19 20 21 20 21 23 27
10 10 7 4 6 14 10 10 20 4 4 15 26 21 29 28 7 5 28 28 28 23 17 15 10 9 7 7 5 5 7 11 13 16 18 19 20 20 19 17 19 20 20 23
4 4 9 4 4 6 4 1 6 8 9 24 36 36 32 7 18 33 31 28 25 22 17 10 5 4 2 5 9 11 13 15 17 19 20 18 17 16 15 17 19 23 24 24
5 6 4 3 5 7 4 5 5 7 30 33 33 34 31 42 41 35 30 28 23 19 13 9 7 3 2 6 8 11 12 14 16 17 16 17 15 12 15 18 22 20 22 25
5 7 5 5 8 4 4 20 32 43 40 31 46 43 47 38 38 34 29 28 24 20 17 12 7 4 3 8 10 12 15 17 18 18 16 13 10 14 16 16 18 20 22 22
5 7 5 5 1 7 27 25 35 40 43 41 45 48 46 43 37 35 30 26 21 16 13 10 5 1 4 7 12 14 16 17 20 18 13 10 13 13 11 17 19 20 23 26
11 8 7 5 9 15 13 25 33 38 39 41 41 41 45 43 37 34 30 25 19 13 7 5 4 3 4 7 9 11 17 21 18 13 14 14 12 14 16 16 18 19 21 22
2 6 6 5 12 19 12 27 41 42 41 40 46 41 39 40 38 32 25 19 13 12 10 7 4 3 3 6 11 14 17 13 13 13 13 12 13 14 14 14 17 17 17 16

GFSCGP_850_spd_156.txt.gz
Wind_Speed
3 2 9 12 5 5 5 5 7 5 9 6 13 13 22 30 28 23 31 34 35 36 33 31 30 27 26 23 22 18 20 19 16 16 18 15 10 8 8 11 12 16 18 16
4 9 14 6 8 8 9 12 11 5 19 6 11 18 20 27 29 32 34 34 39 38 34 35 33 34 31 27 26 22 20 20 20 18 16 12 10 11 13 12 14 17 20 19
7 11 2 6 11 9 11 8 6 13 11 8 11 4 15 17 24 27 32 36 38 43 41 39 38 35 31 31 29 26 23 21 22 20 16 15 14 15 13 12 11 16 13 7
7 12 8 7 10 7 8 1 6 6 6 6 7 5 10 17 17 22 30 33 39 43 42 42 43 41 39 37 34 30 27 26 27 24 22 22 18 18 15 14 12 8 7 8
10 5 8 7 15 7 7 2 6 5 3 6 3 5 5 13 14 18 29 37 42 47 47 46 44 41 40 38 37 34 30 27 28 30 28 24 22 18 14 14 15 13 12 12
9 14 5 10 14 13 3 3 7 5 3 2 7 7 4 16 27 23 32 38 41 45 47 46 43 40 39 38 36 35 33 28 24 25 26 26 24 20 17 18 18 17 12 14
7 11 10 7 8 5 7 7 4 4 4 6 3 2 10 19 19 28 31 40 41 43 46 48 46 45 41 42 40 35 32 32 27 23 25 24 23 21 18 16 15 17 15 15
7 7 7 5 8 9 5 8 6 5 2 5 5 6 12 14 31 35 43 46 41 40 45 48 48 46 43 42 41 38 31 30 26 23 21 20 20 20 18 18 18 19 20 15
6 7 5 5 6 10 5 2 8 7 2 3 4 5 6 8 9 17 26 30 36 42 44 51 49 46 44 32 32 34 34 25 25 21 23 21 16 17 18 19 21 24 23 17
3 2 6 11 4 1 9 5 1 3 1 4 5 4 4 5 7 6 10 18 33 38 42 47 46 31 23 23 22 25 27 25 14 15 24 11 10 13 21 21 29 24 26 27
9 4 7 0 4 9 1 1 5 5 5 6 1 6 6 6 9 9 14 19 21 34 36 29 25 23 25 27 24 20 20 20 22 26 27 22 21 24 22 31 34 30 32 33
10 6 9 14 10 6 9 12 7 5 5 1 4 5 5 4 9 23 20 26 24 16 28 28 28 27 29 30 27 25 23 17 14 19 23 24 21 36 42 32 37 38 34 34
8 4 8 10 7 4 6 6 6 5 4 6 6 5 2 3 11 22 28 28 27 23 23 30 32 32 31 27 28 21 19 16 20 26 20 24 18 25 32 33 31 35 30 24
20 6 10 12 8 4 5 7 6 8 4 5 6 6 5 5 10 16 26 29 27 25 23 26 30 29 25 24 19 12 13 14 11 6 7 11 16 27 25 33 32 22 20 22
14 10 8 8 9 6 3 6 10 7 7 7 8 12 11 12 12 21 32 30 29 28 26 26 28 26 20 11 8 6 4 3 8 7 8 7 8 3 3 11 23 20 23 26
5 7 8 10 9 8 5 9 8 6 2 3 5 6 7 14 29 26 31 33 31 28 28 26 23 16 10 8 6 7 12 10 6 7 9 9 7 7 9 14 18 24 28 28
7 8 5 10 5 8 3 7 5 6 5 8 6 8 10 5 13 27 30 35 33 31 30 25 20 16 19 18 16 16 12 10 10 9 9 7 8 12 17 20 22 21 21 20
5 7 5 8 5 10 8 7 8 6 7 7 3 14 16 18 18 29 34 38 35 35 33 25 24 24 23 21 17 15 13 12 11 10 7 7 8 10 12 13 14 16 15 16
6 5 3 6 6 4 4 6 6 5 5 4 11 18 24 32 35 16 27 32 36 35 31 31 28 27 23 18 15 11 9 6 3 3 7 10 13 14 14 14 14 12 12 14
6 4 5 4 6 11 7 5 7 6 4 8 28 22 28 26 7 4 27 35 37 35 35 33 26 22 19 15 10 5 3 3 5 8 9 9 7 7 5 6 7 10 12 14
3 3 8 3 3 6 6 11 8 6 8 25 36 41 33 8 13 35 37 37 36 35 31 25 22 19 14 9 4 1 2 5 7 9 8 6 5 4 5 7 10 12 12 14
6 6 4 3 4 4 5 1 10 8 7 37 25 28 28 38 49 44 39 37 33 30 25 19 18 14 11 4 2 4 7 9 11 13 10 9 7 7 9 10 11 13 14 16
2 7 6 8 7 7 3 13 14 18 31 27 43 36 42 51 48 45 41 35 30 26 23 16 12 10 5 2 7 10 11 11 14 16 11 9 7 8 8 13 16 16 18 19
3 4 4 3 1 3 10 15 23 26 38 42 47 44 47 50 47 42 38 35 31 26 21 15 8 5 1 5 9 10 12 16 17 14 11 7 7 9 10 13 16 18 19 19
5 4 5 1 3 12 9 23 33 29 40 41 41 45 49 49 43 42 39 32 26 20 15 8 5 2 3 5 7 11 14 15 13 11 12 12 11 10 8 10 13 15 15 12
3 7 4 6 14 11 9 26 35 43 45 46 48 43 45 44 44 39 34 29 24 18 13 7 2 2 3 5 9 11 12 15 12 11 12 9 8 11 14 13 12 12 14 14

GFSCGP_850_spd_159.txt.gz
Wind_Speed
4 3 8 8 7 5 1 4 7 13 7 6 7 7 19 30 24 23 27 28 30 34 27 27 25 23 21 21 21 22 24 24 23 23 24 19 17 14 13 12 15 14 16 17
4 8 6 3 3 2 4 4 11 6 9 7 6 4 17 25 31 31 32 31 34 35 33 32 30 28 27 25 24 23 22 22 21 20 22 19 14 14 15 15 13 14 15 18
8 6 6 5 2 3 2 5 11 8 6 5 9 3 8 11 15 21 29 34 33 36 36 37 36 35 31 31 29 27 24 25 22 19 16 16 15 16 17 14 11 12 18 17
6 9 5 2 5 7 5 7 12 14 15 7 3 4 7 11 15 18 24 30 37 38 38 37 40 40 37 35 32 28 26 23 22 20 20 19 17 18 16 18 18 16 11 11
9 6 5 6 12 7 10 4 4 10 7 7 3 3 7 11 15 20 26 33 37 43 42 42 43 41 35 34 33 30 27 22 20 18 19 20 21 18 16 18 18 16 14 12
8 2 5 7 0 7 5 1 7 6 5 1 9 7 4 12 27 25 26 31 39 42 45 44 43 42 41 37 34 30 28 25 19 18 19 23 22 21 22 19 18 17 18 15
6 8 6 4 6 2 5 5 3 3 4 5 4 3 12 19 22 24 30 37 40 42 44 47 47 47 45 39 36 34 30 30 26 20 21 17 21 22 22 21 17 18 18 19
6 6 7 3 9 8 5 7 6 5 4 5 5 5 7 9 28 37 38 45 37 38 45 47 48 48 42 41 39 35 34 30 29 26 24 23 17 20 23 23 21 21 21 23
7 6 4 5 6 10 4 2 4 8 2 3 4 7 7 7 2 15 24 26 33 39 44 48 47 40 39 40 41 35 31 27 28 37 31 27 22 22 21 24 24 25 28 26
5 1 4 4 3 3 6 7 3 3 2 4 5 4 6 3 4 7 11 24 34 37 34 37 35 35 34 35 36 35 32 29 29 29 31 28 26 25 27 25 28 24 32 33
6 3 6 1 5 8 1 2 7 6 5 6 1 6 6 2 5 10 12 30 34 35 34 31 34 29 29 29 30 29 30 40 30 30 31 30 32 30 26 27 35 27 29 29
8 6 4 10 5 1 2 5 7 5 4 1 4 5 3 5 3 15 14 12 20 26 29 29 27 23 27 28 27 27 26 29 30 28 25 24 23 29 31 34 31 36 30 34
8 2 1 9 5 4 3 4 5 6 4 7 6 5 4 9 5 10 22 18 16 20 24 25 25 28 29 29 27 22 19 19 20 18 14 18 20 28 34 31 22 25 34 34
22 5 11 13 7 5 4 5 5 7 4 5 6 5 4 7 11 11 20 22 22 25 28 30 31 32 31 27 22 19 14 12 12 10 3 8 15 15 16 25 27 26 21 27
8 10 7 9 11 6 5 6 8 7 8 7 9 11 11 17 16 22 27 26 28 29 30 32 34 31 28 22 16 11 8 9 6 2 2 3 5 4 9 11 12 14 17 26
2 5 8 9 9 11 7 10 9 5 5 1 4 6 3 12 16 20 27 30 31 31 30 31 28 24 19 15 13 11 10 9 7 7 7 7 8 10 12 14 15 17 20 23
3 7 6 9 6 7 6 11 7 5 4 8 7 11 11 6 18 27 29 32 35 34 34 31 27 22 17 14 14 15 13 12 11 9 9 8 9 12 15 19 21 23 25 26
6 5 5 7 3 6 12 10 10 10 7 7 3 6 23 23 11 15 26 38 38 37 34 29 26 23 19 18 17 16 15 12 8 6 6 9 13 17 21 23 23 22 21 20
8 6 2 6 7 5 2 4 8 7 7 7 8 8 19 28 21 10 26 32 39 40 33 30 27 24 20 17 14 12 11 9 8 9 11 14 16 16 17 18 17 16 17 17
5 3 5 3 7 14 9 6 14 6 6 9 14 17 24 27 10 6 28 34 39 36 32 33 29 24 22 19 16 13 12 10 8 7 10 12 14 15 15 14 14 16 18 18
4 3 6 4 4 6 6 7 9 10 9 21 28 36 35 17 11 34 35 38 39 38 38 34 28 25 21 17 12 9 7 7 8 8 10 10 11 10 10 10 10 11 11 11
6 6 4 3 3 3 11 8 10 8 9 29 30 33 36 24 35 44 42 42 41 40 36 30 28 24 18 12 8 6 4 4 5 7 7 6 6 7 6 5 6 8 10 11
2 7 6 7 7 6 16 10 13 11 10 22 33 37 42 44 50 48 47 45 42 38 33 27 24 22 16 9 4 3 2 5 8 8 4 3 3 2 1 3 8 10 10 13
3 4 5 3 4 5 2 6 11 16 14 27 36 43 41 49 52 50 49 45 40 34 30 25 20 16 13 8 2 3 6 6 6 4 2 4 3 0 3 4 6 9 11 12
4 6 6 2 0 1 2 5 15 16 19 29 36 41 44 51 48 53 49 44 39 33 27 21 16 13 8 4 1 4 6 6 5 5 5 5 3 6 10 12 12 12 14 15
0 6 5 6 15 7 5 12 20 24 31 38 46 44 45 50 51 47 45 41 34 29 24 19 14 10 7 3 3 5 7 8 11 11 8 5 5 6 10 13 10 13 10 11